Meteo Giornale » Osservazioni meteo Stati Uniti (USA) » Atlanta Fulton Co-Brown Fld
ore: 18:53 - Osservazioni Meteo Atlanta Fulton Co-Brown Fld
Lat. 33° 46' N Lon. 84° 31' W Alt. 256 metri s.l.m.
34 °C
Sereno
Temp. 24 Ore
21 °C
35 °C
Nord
7.4 Km/h
Dew point 19 °C
Umidità 41 %
Visibilità 10 Km
Il sole sorge alle ore 07:12
Il sole tramonta alle ore 20:03
| Data e Ora | Cielo e Fenomeni | T °C | DP °C | Um. % | Pres. hPa | Vis. km | Vento km/h | |
|---|---|---|---|---|---|---|---|---|
| Oggi h: 18:53 | Sereno | 34 | 19 | 41 | 1017 | 10 | N 7.4 | |
| Oggi h: 17:53 | Sereno | 35 | 17 | 34 | 1017 | 10 | N 0 | |
| Oggi h: 16:53 | Poco Nuvoloso | 35 | 18 | 36 | 1018 | 10 | N/NE 11.1 | |
| Oggi h: 15:53 | Poco Nuvoloso | 34 | 19 | 41 | 1018 | 10 | N 7.4 | |
| Oggi h: 14:53 | Poco Nuvoloso | 34 | 19 | 41 | 1019 | 10 | N 11.1 | |
| Oggi h: 13:53 | Nuvoloso | 33 | 20 | 46 | 1019 | 10 | N 11.1 | |
| Oggi h: 12:53 | Nuvoloso | 32 | 20 | 49 | 1020 | 10 | N 0 | |
| Oggi h: 11:53 | Sereno | 32 | 21 | 52 | 1021 | 10 | N 0 | |
| Oggi h: 10:53 | Sereno | 31 | 22 | 58 | 1021 | 10 | N 9.3 | |
| Oggi h: 09:53 | Sereno | 28 | 22 | 69 | 1021 | 10 | N 0 | |
| Oggi h: 08:53 | Sereno | 25 | 21 | 78 | 1021 | 10 | N 0 | |
| Oggi h: 07:53 | Sereno | 22 | 21 | 94 | 1020 | 10 | N 0 | |
| Oggi h: 06:53 | Sereno | 21 | 20 | 94 | 1020 | 10 | N 0 | |
| Oggi h: 05:53 | Sereno | 22 | 19 | 83 | 1019 | 10 | N 0 | |
| Oggi h: 04:53 | Sereno | 22 | 20 | 88 | 1019 | 10 | N 0 | |
| Oggi h: 03:53 | Sereno | 22 | 20 | 88 | 1019 | 10 | N 0 | |
| Oggi h: 02:53 | Sereno | 22 | 20 | 88 | 1019 | 10 | N 0 | |
| Oggi h: 01:53 | Sereno | 23 | 20 | 83 | 1019 | 10 | N 0 | |
| Oggi h: 00:53 | Sereno | 23 | 20 | 83 | 1019 | 10 | N 0 | |
| Ieri h: 23:53 | Sereno | 24 | 20 | 78 | 1019 | 10 | N 0 | |
| Ieri h: 22:53 | Sereno | 25 | 20 | 73 | 1019 | 10 | N 0 | |
| Ieri h: 21:53 | Sereno | 26 | 19 | 65 | 1019 | 10 | N 0 | |
| Ieri h: 20:53 | Sereno | 27 | 20 | 65 | 1018 | 10 | N 0 | |
| Ieri h: 19:53 | Sereno | 30 | 19 | 51 | 1018 | 10 | N/NE 7.4 | |



